DW2715 Weather Reports


Display with metric or nautical units.
time (UTC)temp
F
wind
direction
speed
MPH
gust
MPH
rain 1hr
in
rain 24hr
in
rain mn
in
humidity
%
barometer
mb
20260510082806 64 113 2.0 6.0 0.00 0.00 0.00 80 1014.4
20260510082306 64 134 3.0 7.0 0.00 0.00 0.00 80 1014.4
20260510081803 64 109 3.0 7.0 0.00 0.00 0.00 80 1014.3
20260510080802 64 119 2.0 8.0 0.00 0.00 0.00 80 1014.1
20260510080302 64 84 2.0 7.0 0.00 0.00 0.00 80 1014.1
20260510075803 64 78 2.0 7.0 0.00 0.00 0.00 80 1014.1
20260510075306 64 17 1.0 7.0 0.00 0.00 0.00 80 1014.1
20260510074803 64 147 2.0 7.0 0.00 0.00 0.00 80 1014.1
20260510073300 63 92 2.0 7.0 0.00 0.00 0.00 81 1014.2
20260510072800 63 9 2.0 4.0 0.00 0.00 0.00 81 1014.2
20260510072259 62 25 1.0 4.0 0.00 0.00 0.00 82 1014.2
20260510071757 62 101 1.0 4.0 0.00 0.00 0.00 82 1014.2
20260510071300 62 36 2.0 6.0 0.00 0.00 0.00 82 1014.2
20260510070758 62 82 2.0 6.0 0.00 0.00 0.00 82 1014.2
20260510065755 62 40 2.0 6.0 0.00 0.00 0.00 82 1014.3
20260510065255 61 28 2.0 6.0 0.00 0.00 0.00 82 1014.2
20260510064755 61 82 1.0 6.0 0.00 0.00 0.00 82 1014.3
20260510064255 61 93 0.0 0.0 0.00 0.00 0.00 83 1014.3
20260510063756 61 42 0.0 0.0 0.00 0.00 0.00 82 1014.4
20260510063257 60 38 0.0 1.0 0.00 0.00 0.00 82 1014.5
20260510061746 60 36 0.0 0.0 0.00 0.00 0.00 82 1014.5
20260510061243 60 37 0.0 0.0 0.00 0.00 0.00 82 1014.5
20260510060743 60 34 0.0 0.0 0.00 0.00 0.00 82 1014.5
20260510060243 60 34 0.0 0.0 0.00 0.00 0.00 82 1014.6
20260510055744 60 34 0.0 0.0 0.00 0.00 0.00 82 1014.5
20260510055243 60 34 0.0 0.0 0.00 0.00 0.00 82 1014.4
20260510054745 60 34 0.0 2.0 0.00 0.00 0.00 82 1014.3
20260510054241 59 34 1.0 3.0 0.00 0.00 0.00 82 1014.3
20260510053741 59 32 1.0 3.0 0.00 0.00 0.00 82 1014.3
20260510053242 60 31 1.0 3.0 0.00 0.00 0.00 82 1014.2
20260510052235 60 82 0.0 0.0 0.00 0.00 0.00 82 1014.2
20260510051736 59 94 0.0 1.0 0.00 0.00 0.00 83 1014.1
20260510051235 59 115 0.0 1.0 0.00 0.00 0.00 83 1014.1
20260510050737 59 59 0.0 0.0 0.00 0.00 0.00 83 1014.0
20260510050235 59 5 0.0 0.0 0.00 0.00 0.00 83 1014.0
20260510045735 59 57 0.0 0.0 0.00 0.00 0.00 83 1014.1
20260510045235 58 10 0.0 3.0 0.00 0.00 0.00 82 1014.0
20260510044235 58 25 1.0 4.0 0.00 0.00 0.00 81 1014.2
20260510043231 58 73 0.0 4.0 0.00 0.00 0.00 81 1014.2
20260510042730 58 59 0.0 2.0 0.00 0.00 0.00 81 1014.3
20260510042231 58 117 0.0 0.0 0.00 0.00 0.00 81 1014.2
20260510041730 58 46 0.0 0.0 0.00 0.00 0.00 81 1014.2
20260510041230 58 94 0.0 0.0 0.00 0.00 0.00 81 1014.3
20260510040731 58 71 0.0 4.0 0.00 0.00 0.00 81 1014.3
20260510040230 58 41 0.0 4.0 0.00 0.00 0.00 81 1014.3
20260510035730 58 88 1.0 4.0 0.00 0.00 0.00 81 1014.4
20260510035233 58 101 1.0 4.0 0.00 0.00 0.00 81 1014.4
20260510034730 58 54 1.0 4.0 0.00 0.00 0.00 82 1014.4
20260510034229 58 87 0.0 5.0 0.00 0.00 0.00 83 1014.4
20260510033222 57 86 0.0 0.0 0.00 0.00 0.00 84 1014.5
20260510032716 57 58 0.0 0.0 0.00 0.00 0.00 84 1014.5
20260510032210 57 25 0.0 0.0 0.00 0.00 0.00 84 1014.5
20260510031159 57 25 0.0 0.0 0.00 0.00 0.00 85 1014.6
20260510030652 57 23 0.0 0.0 0.00 0.00 0.00 85 1014.6
20260510030147 58 17 0.0 0.0 0.00 0.00 0.00 85 1014.6
20260510025640 58 31 0.0 0.0 0.00 0.00 0.00 85 1014.6
20260510025141 58 40 0.0 0.0 0.00 0.00 0.00 85 1014.8
20260510024639 58 50 0.0 0.0 0.00 0.00 0.00 85 1014.9
20260510024141 58 50 0.0 0.0 0.00 0.00 0.00 84 1014.9
20260510023639 58 50 0.0 0.0 0.00 0.00 0.00 84 1015.0
20260510023136 58 50 0.0 0.0 0.00 0.00 0.00 84 1014.9
20260510022634 58 50 0.0 0.0 0.00 0.00 0.00 84 1015.0
20260510022134 58 50 0.0 0.0 0.00 0.00 0.00 84 1015.1
20260510021635 58 50 0.0 0.0 0.00 0.00 0.00 84 1015.2
20260510020630 59 50 0.0 0.0 0.00 0.00 0.00 83 1015.1
20260510015631 59 50 0.0 0.0 0.00 0.00 0.00 83 1015.1
20260510015130 59 50 0.0 0.0 0.00 0.00 0.00 83 1015.1
20260510014630 59 50 0.0 0.0 0.00 0.00 0.00 83 1015.1
20260510014131 59 50 0.0 0.0 0.00 0.00 0.00 82 1015.1
20260510013630 59 50 0.0 0.0 0.00 0.00 0.00 82 1015.2
20260510013131 59 50 0.0 0.0 0.00 0.00 0.00 82 1015.1
20260510012629 59 50 0.0 0.0 0.00 0.00 0.00 82 1015.2
20260510011634 59 51 0.0 0.0 0.00 0.00 0.00 81 1015.2
20260510011130 59 51 0.0 0.0 0.00 0.00 0.00 81 1015.2
20260510010631 59 49 0.0 0.0 0.00 0.00 0.00 81 1015.3
20260510010130 59 31 0.0 0.0 0.00 0.00 0.00 80 1015.3
20260510005631 60 36 0.0 3.0 0.00 0.00 0.00 80 1015.3
20260510005131 60 42 0.0 3.0 0.00 0.00 0.00 79 1015.3
20260510004630 60 31 0.0 1.0 0.00 0.00 0.00 78 1015.3
20260510004130 60 39 0.0 0.0 0.00 0.00 0.00 78 1015.4
20260510003630 60 35 0.0 0.0 0.00 0.00 0.00 78 1015.4
20260510003130 60 35 0.0 0.0 0.00 0.00 0.00 78 1015.4
20260510002632 60 36 0.0 0.0 0.00 0.00 0.00 77 1015.5
20260510002130 60 36 0.0 0.0 0.00 0.00 0.00 77 1015.6
20260510001630 60 36 0.0 0.0 0.00 0.00 0.00 77 1015.5
20260510001131 60 36 0.0 0.0 0.00 0.00 0.00 77 1015.4
20260510000631 60 36 0.0 0.0 0.00 0.00 0.00 77 1015.5
20260510000131 60 36 0.0 0.0 0.00 0.00 0.00 76 1015.5
20260509235130 60 36 0.0 0.0 0.00 0.00 0.00 76 1015.6
20260509234626 60 36 0.0 0.0 0.00 0.00 0.00 76 1015.6
20260509234124 60 36 0.0 0.0 0.00 0.00 0.00 76 1015.6
20260509233624 61 36 0.0 0.0 0.00 0.00 0.00 75 1015.7
20260509233122 61 36 0.0 0.0 0.00 0.00 0.00 75 1015.8
20260509232622 61 36 0.0 0.0 0.00 0.00 0.00 74 1015.7
20260509232120 61 36 0.0 0.0 0.00 0.00 0.00 74 1015.8
20260509231618 61 36 0.0 0.0 0.00 0.00 0.00 74 1015.8
20260509231118 61 36 0.0 0.0 0.00 0.00 0.00 73 1015.8
20260509230621 61 36 0.0 0.0 0.00 0.00 0.00 73 1015.9
20260509225614 61 36 0.0 0.0 0.00 0.00 0.00 72 1015.8
20260509225116 62 36 0.0 0.0 0.00 0.00 0.00 72 1015.8
20260509224615 62 36 0.0 0.0 0.00 0.00 0.00 72 1015.7
20260509224112 62 36 0.0 0.0 0.00 0.00 0.00 71 1015.8
20260509223110 62 36 0.0 0.0 0.00 0.00 0.00 71 1015.8
20260509222609 62 36 0.0 0.0 0.00 0.00 0.00 71 1015.8
20260509221608 62 36 0.0 0.0 0.00 0.00 0.00 71 1015.7
20260509221107 62 36 0.0 0.0 0.00 0.00 0.00 71 1015.8
20260509220603 62 36 0.0 0.0 0.00 0.00 0.00 71 1015.7
20260509220103 62 36 0.0 0.0 0.00 0.00 0.00 71 1015.8
20260509215603 62 37 0.0 0.0 0.00 0.00 0.00 71 1015.8
20260509215102 62 37 0.0 0.0 0.00 0.00 0.00 70 1015.8
20260509214103 63 37 0.0 0.0 0.00 0.00 0.00 70 1015.8
20260509213605 63 37 0.0 0.0 0.00 0.00 0.00 70 1015.8
20260509213103 63 37 0.0 0.0 0.00 0.00 0.00 70 1015.8
20260509212102 63 37 0.0 0.0 0.00 0.00 0.00 69 1015.9
20260509211603 63 37 0.0 1.0 0.00 0.00 0.00 69 1015.9
20260509211102 63 37 0.0 1.0 0.00 0.00 0.00 69 1015.8
20260509210603 63 34 0.0 0.0 0.00 0.00 0.00 69 1015.8
20260509205603 64 150 0.0 0.0 0.00 0.00 0.00 68 1015.7
20260509205103 64 43 0.0 0.0 0.00 0.00 0.00 67 1015.7
20260509204603 64 32 0.0 0.0 0.00 0.00 0.00 67 1015.7
20260509204102 64 146 0.0 4.0 0.00 0.00 0.00 66 1015.7
20260509203603 65 159 1.0 5.0 0.00 0.00 0.00 66 1015.6
20260509203102 65 194 1.0 5.0 0.00 0.00 0.00 65 1015.5
20260509202103 65 186 0.0 5.0 0.00 0.00 0.00 64 1015.5
20260509201603 65 192 0.0 0.0 0.00 0.00 0.00 64 1015.4
20260509201102 65 192 0.0 0.0 0.00 0.00 0.00 64 1015.4
20260509200602 65 190 0.0 0.0 0.00 0.00 0.00 64 1015.4
20260509195603 66 190 0.0 2.0 0.00 0.00 0.00 64 1015.3
20260509194603 66 190 0.0 0.0 0.00 0.00 0.00 64 1015.3
20260509194103 66 191 0.0 0.0 0.00 0.00 0.00 64 1015.2
20260509193602 67 190 0.0 0.0 0.00 0.00 0.00 64 1015.2
20260509193102 67 204 0.0 0.0 0.00 0.00 0.00 64 1015.1
20260509192603 67 197 0.0 0.0 0.00 0.00 0.00 64 1015.1
20260509192102 67 199 0.0 1.0 0.00 0.00 0.00 63 1015.1
20260509191603 68 199 0.0 1.0 0.00 0.00 0.00 62 1015.0
20260509190604 68 199 0.0 4.0 0.00 0.00 0.00 61 1014.8
20260509190103 68 161 0.0 0.0 0.00 0.00 0.00 61 1014.8
20260509185603 69 171 0.0 2.0 0.00 0.00 0.00 61 1014.8
20260509184602 69 152 0.0 3.0 0.00 0.00 0.00 60 1014.6
20260509184102 69 162 1.0 3.0 0.00 0.00 0.00 60 1014.6
20260509183103 70 148 1.0 7.0 0.00 0.00 0.00 59 1014.5
20260509182603 70 136 1.0 5.0 0.00 0.00 0.00 59 1014.4
20260509182103 70 140 1.0 4.0 0.00 0.00 0.00 59 1014.4
20260509180604 72 159 1.0 8.0 0.00 0.00 0.00 57 1014.3
20260509180103 72 119 1.0 7.0 0.00 0.00 0.00 57 1014.4
20260509175603 73 133 0.0 7.0 0.00 0.00 0.00 56 1014.4
20260509174603 74 142 0.0 1.0 0.00 0.00 0.00 55 1014.5
20260509173104 75 184 0.0 3.0 0.00 0.00 0.00 54 1014.4
20260509172602 75 194 0.0 4.0 0.00 0.00 0.00 53 1014.4
20260509172105 76 165 1.0 8.0 0.00 0.00 0.00 53 1014.5
20260509171603 76 119 1.0 8.0 0.00 0.00 0.00 52 1014.4
20260509171103 76 125 0.0 4.0 0.00 0.00 0.00 52 1014.4
20260509170601 76 163 1.0 10.0 0.00 0.00 0.00 52 1014.4
20260509165601 76 146 0.0 1.0 0.00 0.00 0.00 51 1014.3
20260509165101 76 155 0.0 0.0 0.00 0.00 0.00 51 1014.2
20260509164603 76 236 0.0 0.0 0.00 0.00 0.00 52 1014.3
20260509163101 77 88 1.0 8.0 0.00 0.00 0.00 50 1014.4
20260509162602 77 207 1.0 8.0 0.00 0.00 0.00 49 1014.4
20260509162101 78 188 2.0 9.0 0.00 0.00 0.00 49 1014.5
20260509161601 78 184 3.0 10.0 0.00 0.00 0.00 48 1014.5
20260509155600 80 190 1.0 7.0 0.00 0.00 0.00 45 1014.5
20260509155101 81 109 0.0 6.0 0.00 0.00 0.00 43 1014.5
20260509154601 81 196 1.0 8.0 0.00 0.00 0.00 39 1014.5
20260509153601 81 213 1.0 4.0 0.00 0.00 0.00 40 1014.4
20260509153101 81 132 1.0 6.0 0.00 0.00 0.00 42 1014.4
20260509152602 81 201 1.0 7.0 0.00 0.00 0.00 40 1014.5
20260509152101 81 184 1.0 11.0 0.00 0.00 0.00 41 1014.5
20260509151602 81 207 1.0 11.0 0.00 0.00 0.00 40 1014.5
20260509151101 81 148 1.0 8.0 0.00 0.00 0.00 40 1014.5
20260509150602 81 190 2.0 9.0 0.00 0.00 0.00 40 1014.6
20260509150100 81 172 1.0 9.0 0.00 0.00 0.00 41 1014.8
20260509145601 81 200 1.0 9.0 0.00 0.00 0.00 41 1014.8
20260509144600 81 205 2.0 12.0 0.00 0.00 0.00 40 1014.8
20260509144101 81 211 2.0 12.0 0.00 0.00 0.00 40 1014.9
20260509143602 81 150 1.0 9.0 0.00 0.00 0.00 41 1014.8
20260509143101 81 186 1.0 9.0 0.00 0.00 0.00 41 1014.9
20260509142601 81 202 1.0 7.0 0.00 0.00 0.00 40 1014.9
20260509142102 81 157 2.0 7.0 0.00 0.00 0.00 39 1014.9
20260509141557 81 178 1.0 7.0 0.00 0.00 0.00 39 1014.9
20260509140557 81 217 2.0 11.0 0.00 0.00 0.00 38 1015.0
20260509140057 81 283 1.0 10.0 0.00 0.00 0.00 40 1015.1
20260509135555 81 167 0.0 10.0 0.00 0.00 0.00 40 1015.1
20260509135055 81 193 2.0 12.0 0.00 0.00 0.00 41 1015.0
20260509134553 81 134 3.0 12.0 0.00 0.00 0.00 40 1015.2
20260509133553 81 198 2.0 11.0 0.00 0.00 0.00 42 1015.2
20260509132552 80 174 2.0 12.0 0.00 0.00 0.00 43 1015.3
20260509132052 79 190 1.0 9.0 0.00 0.00 0.00 43 1015.4
20260509131047 79 269 2.0 10.0 0.00 0.00 0.00 44 1015.4
20260509130548 79 208 2.0 10.0 0.00 0.00 0.00 42 1015.5
20260509125547 79 195 0.0 3.0 0.00 0.00 0.00 45 1015.5
20260509124541 79 153 0.0 6.0 0.00 0.00 0.00 44 1015.5
20260509124037 80 113 0.0 6.0 0.00 0.00 0.00 43 1015.5
20260509123536 80 211 1.0 7.0 0.00 0.00 0.00 45 1015.6
20260509122540 79 95 2.0 9.0 0.00 0.00 0.00 45 1015.6
20260509122037 79 102 1.0 7.0 0.00 0.00 0.00 46 1015.6
20260509121537 79 217 1.0 7.0 0.00 0.00 0.00 45 1015.7
20260509121037 79 158 1.0 5.0 0.00 0.00 0.00 47 1015.8
20260509120038 78 208 1.0 6.0 0.00 0.00 0.00 46 1015.8
20260509115032 77 136 0.0 7.0 0.00 0.00 0.00 48 1016.0
20260509114536 77 103 1.0 6.0 0.00 0.00 0.00 48 1016.0
20260509114033 76 161 1.0 6.0 0.00 0.00 0.00 49 1016.0
20260509113034 74 223 0.0 2.0 0.00 0.00 0.00 52 1016.1
20260509112533 74 294 1.0 7.0 0.00 0.00 0.00 50 1016.2
20260509112034 74 302 2.0 7.0 0.00 0.00 0.00 50 1016.2
20260509111533 74 231 1.0 7.0 0.00 0.00 0.00 52 1016.2
20260509111034 74 310 0.0 5.0 0.00 0.00 0.00 52 1016.3
20260509110533 74 292 1.0 5.0 0.00 0.00 0.00 50 1016.4
20260509110033 74 313 0.0 4.0 0.00 0.00 0.00 51 1016.5
20260509105532 75 290 0.0 0.0 0.00 0.00 0.00 50 1016.6
20260509104533 76 211 1.0 9.0 0.00 0.00 0.00 51 1016.7
20260509103532 75 142 0.0 5.0 0.00 0.00 0.00 53 1016.7
20260509103029 75 81 0.0 5.0 0.00 0.00 0.00 52 1016.8
20260509102530 74 201 0.0 5.0 0.00 0.00 0.00 53 1016.9
20260509102029 74 222 0.0 4.0 0.00 0.00 0.00 54 1016.9
20260509101029 74 217 0.0 4.0 0.00 0.00 0.00 55 1017.0
20260509100530 73 193 0.0 6.0 0.00 0.00 0.00 56 1017.0
20260509100029 73 200 1.0 6.0 0.00 0.00 0.00 57 1017.0
20260509095526 72 253 0.0 4.0 0.00 0.00 0.00 57 1017.0
20260509095021 72 250 0.0 3.0 0.00 0.00 0.00 58 1017.1
20260509094518 72 250 1.0 6.0 0.00 0.00 0.00 60 1017.1
20260509094019 72 221 2.0 7.0 0.00 0.00 0.00 59 1017.2
20260509093519 72 194 1.0 7.0 0.00 0.00 0.00 60 1017.2
20260509093019 71 181 0.0 7.0 0.00 0.00 0.00 62 1017.2
20260509092518 71 246 0.0 0.0 0.00 0.00 0.00 61 1017.3
20260509092016 71 209 0.0 0.0 0.00 0.00 0.00 61 1017.5
20260509091515 71 180 0.0 3.0 0.00 0.00 0.00 60 1017.5
20260509090515 71 198 1.0 4.0 0.00 0.00 0.00 62 1017.5
20260509090012 70 135 1.0 6.0 0.00 0.00 0.00 62 1017.5
20260509085512 70 260 1.0 6.0 0.00 0.00 0.00 63 1017.6
20260509085008 69 203 1.0 6.0 0.00 0.00 0.00 63 1017.6
20260509084506 69 232 1.0 6.0 0.00 0.00 0.00 63 1017.6
20260509083505 69 170 1.0 6.0 0.00 0.00 0.00 65 1017.5